Location: Erp
(42.9417°N, 1.2009°E)
Time: 23:29:13
(UTC+00:00)

Cosmos 1959 Rocket - Pass Details

Date: 26 April 2026
Orbit: 946 x 997 km, 82.9° (Epoch: 15 May)

Event Time Altitude Azimuth Distance (km) Brightness Sun altitude
Rises 19:11:09 0° 189° (S) 3,695 7.4 -4.4°
Reaches altitude 10° 19:13:40 10° 190° (S) 2,747 6.7 -4.8°
Maximum altitude 19:19:59 81° 278° (W) 1,003 4.7 -5.9°
Drops below altitude 10° 19:26:17 10° 6° (N) 2,734 7.1 -6.9°
Sets 19:28:48 0° 7° (N) 3,678 7.8 -7.3°
